DAL2146 KMSP-KSAN

Flight info

Callsign DAL2146
Flight time 3h 21m
Altitude 36000
Route LEINY6 LEINY VIVID BFF CYS EKR/N0440F380 HVE PROMT Q88 HAKMN Q73 LVELL LUCKI1
Aircraft B739/M-SDE2E3FGHIRWXY/LB1

Departure

Time 2026-05-07 09:20
Airport Minneapolis–Saint Paul International Airport / Wold–Chamberlain Field (KMSP)

Arrival

Time 2026-05-07 12:41
Airport San Diego International Airport (KSAN)
Time Latitude Longitude Altitude Speed Heading
2026-05-07 08:53 44.88407 -93.21507 824 ft 0 kts 201°
2026-05-07 09:07 44.88409 -93.21506 824 ft 2 kts 201°
2026-05-07 09:08 44.88428 -93.21496 824 ft 3 kts 201°
2026-05-07 09:08 44.88444 -93.21487 824 ft 3 kts 209°
2026-05-07 09:08 44.88457 -93.21473 821 ft 3 kts 258°
2026-05-07 09:08 44.88455 -93.21451 823 ft 3 kts 293°
2026-05-07 09:09 44.88448 -93.21428 818 ft 0 kts 293°
2026-05-07 09:11 44.88448 -93.21429 818 ft 1 kts 294°
2026-05-07 09:11 44.88467 -93.21466 820 ft 9 kts 312°
2026-05-07 09:11 44.88516 -93.21530 824 ft 10 kts 316°
2026-05-07 09:12 44.88534 -93.21615 824 ft 9 kts 258°
2026-05-07 09:12 44.88494 -93.21687 824 ft 9 kts 223°
2026-05-07 09:12 44.88449 -93.21749 824 ft 9 kts 225°
2026-05-07 09:12 44.88406 -93.21811 824 ft 9 kts 226°
2026-05-07 09:13 44.88363 -93.21872 824 ft 9 kts 224°
2026-05-07 09:13 44.88322 -93.21922 824 ft 7 kts 215°
2026-05-07 09:13 44.88284 -93.21943 824 ft 6 kts 174°
2026-05-07 09:13 44.88254 -93.21905 824 ft 6 kts 126°
2026-05-07 09:14 44.88227 -93.21844 821 ft 10 kts 121°
2026-05-07 09:14 44.88179 -93.21734 823 ft 16 kts 122°
2026-05-07 09:14 44.88119 -93.21597 824 ft 16 kts 122°
2026-05-07 09:14 44.88062 -93.21464 823 ft 15 kts 122°
2026-05-07 09:15 44.88007 -93.21338 822 ft 15 kts 121°
2026-05-07 09:15 44.87956 -93.21216 822 ft 14 kts 122°
2026-05-07 09:15 44.87905 -93.21101 824 ft 14 kts 121°
2026-05-07 09:15 44.87857 -93.20990 825 ft 13 kts 121°
2026-05-07 09:16 44.87811 -93.20883 822 ft 13 kts 121°
2026-05-07 09:16 44.87760 -93.20766 824 ft 15 kts 121°
2026-05-07 09:16 44.87708 -93.20645 824 ft 14 kts 121°
2026-05-07 09:16 44.87656 -93.20525 822 ft 14 kts 121°
2026-05-07 09:17 44.87608 -93.20414 824 ft 13 kts 121°
2026-05-07 09:17 44.87563 -93.20310 823 ft 10 kts 121°
2026-05-07 09:17 44.87534 -93.20242 823 ft 7 kts 121°
2026-05-07 09:17 44.87505 -93.20203 825 ft 6 kts 165°
2026-05-07 09:18 44.87467 -93.20221 825 ft 6 kts 210°
2026-05-07 09:18 44.87438 -93.20259 823 ft 6 kts 240°
2026-05-07 09:18 44.87438 -93.20313 824 ft 6 kts 289°
2026-05-07 09:18 44.87446 -93.20335 822 ft 0 kts 300°
2026-05-07 09:19 44.87447 -93.20338 822 ft 5 kts 301°
2026-05-07 09:19 44.87591 -93.20669 824 ft 75 kts 301°
2026-05-07 09:19 44.87977 -93.21568 818 ft 136 kts 301°
2026-05-07 09:20 44.88554 -93.22909 840 ft 181 kts 301°
2026-05-07 09:20 44.89231 -93.24441 1388 ft 188 kts 301°
2026-05-07 09:20 44.89926 -93.26031 2119 ft 194 kts 298°
2026-05-07 09:20 44.90581 -93.27702 2877 ft 193 kts 297°
2026-05-07 09:21 44.91220 -93.29358 3634 ft 191 kts 297°
2026-05-07 09:21 44.91853 -93.30983 4372 ft 188 kts 298°
2026-05-07 09:21 44.92494 -93.32581 5071 ft 186 kts 299°
2026-05-07 09:21 44.93136 -93.34140 5704 ft 186 kts 300°
2026-05-07 09:22 44.93815 -93.35769 5979 ft 205 kts 298°
2026-05-07 09:22 44.94165 -93.37783 6209 ft 225 kts 265°
2026-05-07 09:22 44.93891 -93.40012 6567 ft 244 kts 263°
2026-05-07 09:22 44.93618 -93.42448 7063 ft 255 kts 264°
2026-05-07 09:23 44.93359 -93.44909 7982 ft 252 kts 264°
2026-05-07 09:23 44.93113 -93.47347 8878 ft 251 kts 265°
2026-05-07 09:23 44.92876 -93.49777 9726 ft 252 kts 265°
2026-05-07 09:23 44.92642 -93.52239 10397 ft 258 kts 265°
2026-05-07 09:24 44.92398 -93.54865 10585 ft 282 kts 265°
2026-05-07 09:24 44.92133 -93.57714 10771 ft 303 kts 265°
2026-05-07 09:24 44.91852 -93.60719 11232 ft 314 kts 264°
2026-05-07 09:24 44.91621 -93.63800 11896 ft 317 kts 270°
2026-05-07 09:25 44.91697 -93.66905 12610 ft 319 kts 275°
2026-05-07 09:25 44.91862 -93.70055 13317 ft 322 kts 275°
2026-05-07 09:25 44.92033 -93.73225 13968 ft 326 kts 275°
2026-05-07 09:25 44.92201 -93.76436 14580 ft 330 kts 275°
2026-05-07 09:26 44.92363 -93.79685 15174 ft 334 kts 275°
2026-05-07 09:26 44.92522 -93.82972 15763 ft 338 kts 275°
2026-05-07 09:26 44.92678 -93.86293 16363 ft 341 kts 274°
2026-05-07 09:26 44.92834 -93.89653 16950 ft 345 kts 274°
2026-05-07 09:27 44.92990 -93.93055 17490 ft 350 kts 274°
2026-05-07 09:27 44.93147 -93.96507 18015 ft 355 kts 274°
2026-05-07 09:27 44.93463 -94.03537 19057 ft 362 kts 274°
2026-05-07 09:28 44.93618 -94.07035 19543 ft 366 kts 274°
2026-05-07 09:28 44.93777 -94.10656 20031 ft 370 kts 274°
2026-05-07 09:28 44.93937 -94.14301 20531 ft 374 kts 274°
2026-05-07 09:28 44.94097 -94.17982 21026 ft 377 kts 274°
2026-05-07 09:29 44.94257 -94.21701 21507 ft 381 kts 274°
2026-05-07 09:29 44.94418 -94.25450 21992 ft 384 kts 274°
2026-05-07 09:29 44.94579 -94.29235 22460 ft 388 kts 274°
2026-05-07 09:29 44.94741 -94.33063 22923 ft 392 kts 274°
2026-05-07 09:30 44.94903 -94.36927 23383 ft 396 kts 274°
2026-05-07 09:30 44.95064 -94.40818 23797 ft 399 kts 274°
2026-05-07 09:30 44.95224 -94.44743 24222 ft 401 kts 274°
2026-05-07 09:30 44.95384 -94.48678 24669 ft 402 kts 274°
2026-05-07 09:31 44.95543 -94.52627 25091 ft 404 kts 274°
2026-05-07 09:31 44.95702 -94.56593 25480 ft 406 kts 274°
2026-05-07 09:31 44.95860 -94.60590 25882 ft 408 kts 275°
2026-05-07 09:31 44.96018 -94.64609 26278 ft 410 kts 275°
2026-05-07 09:32 44.96173 -94.68588 26662 ft 412 kts 275°
2026-05-07 09:32 44.96332 -94.72693 27041 ft 414 kts 275°
2026-05-07 09:32 44.96486 -94.76712 27403 ft 417 kts 275°
2026-05-07 09:32 44.96641 -94.80802 27767 ft 419 kts 275°
2026-05-07 09:33 44.96796 -94.84913 28124 ft 421 kts 275°
2026-05-07 09:33 44.96950 -94.89055 28480 ft 423 kts 275°
2026-05-07 09:33 44.97103 -94.93208 28807 ft 425 kts 275°
2026-05-07 09:33 44.97255 -94.97384 29142 ft 427 kts 275°
2026-05-07 09:34 44.97405 -95.01564 29581 ft 426 kts 276°
2026-05-07 09:34 44.97553 -95.05726 30134 ft 423 kts 276°
2026-05-07 09:34 44.97699 -95.09860 30543 ft 421 kts 276°
2026-05-07 09:34 44.97843 -95.13988 30831 ft 422 kts 276°
2026-05-07 09:35 44.97987 -95.18132 31101 ft 423 kts 276°
2026-05-07 09:35 44.98130 -95.22281 31430 ft 423 kts 276°
2026-05-07 09:35 44.98270 -95.26419 31783 ft 421 kts 276°
2026-05-07 09:35 44.98409 -95.30558 32098 ft 421 kts 275°
2026-05-07 09:36 44.98546 -95.34690 32373 ft 422 kts 275°
2026-05-07 09:36 44.98681 -95.38826 32692 ft 420 kts 276°
2026-05-07 09:36 44.98814 -95.42940 33083 ft 418 kts 276°
2026-05-07 09:36 44.98946 -95.47038 33355 ft 419 kts 276°
2026-05-07 09:37 44.99077 -95.51157 33577 ft 420 kts 276°
2026-05-07 09:37 44.99207 -95.55273 33825 ft 420 kts 276°
2026-05-07 09:37 44.99335 -95.59395 34119 ft 419 kts 276°
2026-05-07 09:37 44.99461 -95.63506 34330 ft 419 kts 276°
2026-05-07 09:38 44.99585 -95.67611 34536 ft 419 kts 276°
2026-05-07 09:38 44.99708 -95.71723 34744 ft 419 kts 275°
2026-05-07 09:38 44.99829 -95.75823 34941 ft 416 kts 276°
2026-05-07 09:39 45.00066 -95.84006 35007 ft 417 kts 276°
2026-05-07 09:39 45.00299 -95.92211 35004 ft 418 kts 276°
2026-05-07 09:40 45.00525 -96.00362 35002 ft 418 kts 276°
2026-05-07 09:40 45.00745 -96.08570 35005 ft 418 kts 276°
2026-05-07 09:41 45.00960 -96.16778 35005 ft 417 kts 276°
2026-05-07 09:41 45.01168 -96.24974 35008 ft 417 kts 276°
2026-05-07 09:42 45.01371 -96.33170 35012 ft 417 kts 276°
2026-05-07 09:42 45.01568 -96.41357 35013 ft 417 kts 276°
2026-05-07 09:43 45.01759 -96.49552 35015 ft 417 kts 276°
2026-05-07 09:43 45.01943 -96.57739 35016 ft 416 kts 276°
2026-05-07 09:44 45.02123 -96.65915 35017 ft 416 kts 276°
2026-05-07 09:44 45.02296 -96.74082 35023 ft 416 kts 276°
2026-05-07 09:45 45.02463 -96.82249 35021 ft 416 kts 276°
2026-05-07 09:45 45.02624 -96.90420 34976 ft 416 kts 277°
2026-05-07 09:46 45.02779 -96.98574 34992 ft 415 kts 277°
2026-05-07 09:46 45.02929 -97.06727 34993 ft 415 kts 277°
2026-05-07 09:47 45.03071 -97.14831 34991 ft 415 kts 277°
2026-05-07 09:47 45.03209 -97.22984 34986 ft 415 kts 276°
2026-05-07 09:48 45.03341 -97.31136 34985 ft 415 kts 276°
2026-05-07 09:48 45.03468 -97.39289 34982 ft 415 kts 276°
2026-05-07 09:49 45.03589 -97.47451 34985 ft 415 kts 276°
2026-05-07 09:49 45.03669 -97.55606 34977 ft 417 kts 271°
2026-05-07 09:50 45.02275 -97.63689 34983 ft 432 kts 253°
2026-05-07 09:50 44.99170 -97.71095 34989 ft 441 kts 243°
2026-05-07 09:51 44.95700 -97.78198 34981 ft 442 kts 243°
2026-05-07 09:51 44.92213 -97.85348 34986 ft 442 kts 243°
2026-05-07 09:52 44.88760 -97.92498 34976 ft 441 kts 244°
2026-05-07 09:52 44.85314 -97.99657 34973 ft 441 kts 244°
2026-05-07 09:53 44.81875 -98.06790 34967 ft 439 kts 244°
2026-05-07 09:53 44.78993 -98.12755 34971 ft 439 kts 244°
2026-05-07 09:54 44.75554 -98.19854 34968 ft 439 kts 244°
2026-05-07 09:54 44.72128 -98.26911 34966 ft 439 kts 244°
2026-05-07 09:55 44.68679 -98.33995 34937 ft 439 kts 244°
2026-05-07 09:55 44.65235 -98.41050 34948 ft 437 kts 245°
2026-05-07 09:56 44.61797 -98.48078 34958 ft 436 kts 245°
2026-05-07 09:56 44.58358 -98.55090 34958 ft 436 kts 245°
2026-05-07 09:57 44.54915 -98.62095 34959 ft 436 kts 245°
2026-05-07 09:57 44.51470 -98.69087 34960 ft 436 kts 244°
2026-05-07 09:58 44.48021 -98.76069 34948 ft 435 kts 245°
2026-05-07 09:58 44.44592 -98.82993 34949 ft 435 kts 244°
2026-05-07 09:59 44.41133 -98.89962 34950 ft 436 kts 244°
2026-05-07 09:59 44.37668 -98.96926 34950 ft 436 kts 244°
2026-05-07 10:00 44.34197 -99.03886 34944 ft 437 kts 244°
2026-05-07 10:00 44.30721 -99.10840 34901 ft 437 kts 244°
2026-05-07 10:01 44.27247 -99.17768 34937 ft 436 kts 244°
2026-05-07 10:01 44.23767 -99.24696 34924 ft 436 kts 244°
2026-05-07 10:02 44.20284 -99.31613 34933 ft 435 kts 244°
2026-05-07 10:02 44.16804 -99.38509 34935 ft 435 kts 244°
2026-05-07 10:03 44.13347 -99.45340 34930 ft 434 kts 244°
2026-05-07 10:03 44.09873 -99.52189 34930 ft 432 kts 244°
2026-05-07 10:04 44.06400 -99.59023 34927 ft 431 kts 244°
2026-05-07 10:04 44.02935 -99.65825 34931 ft 431 kts 244°
2026-05-07 10:05 43.99464 -99.72623 34916 ft 431 kts 244°
2026-05-07 10:05 43.95994 -99.79401 34921 ft 430 kts 244°
2026-05-07 10:06 43.92532 -99.86151 34895 ft 428 kts 243°
2026-05-07 10:06 43.89079 -99.92869 34914 ft 427 kts 243°
2026-05-07 10:07 43.85646 -99.99530 34929 ft 427 kts 243°
2026-05-07 10:07 43.82137 -100.06171 34927 ft 427 kts 243°
2026-05-07 10:08 43.78600 -100.12785 34926 ft 427 kts 243°
2026-05-07 10:08 43.75066 -100.19392 34926 ft 427 kts 243°
2026-05-07 10:09 43.71536 -100.25989 34924 ft 426 kts 242°
2026-05-07 10:09 43.68008 -100.32577 34930 ft 426 kts 242°
2026-05-07 10:10 43.64472 -100.39166 34934 ft 427 kts 242°
2026-05-07 10:10 43.60922 -100.45767 34935 ft 429 kts 242°
2026-05-07 10:11 43.57382 -100.52332 34935 ft 429 kts 242°
2026-05-07 10:11 43.53809 -100.58942 34900 ft 430 kts 242°
2026-05-07 10:12 43.50237 -100.65536 34902 ft 429 kts 242°
2026-05-07 10:12 43.46660 -100.72124 34905 ft 430 kts 242°
2026-05-07 10:13 43.43072 -100.78721 34888 ft 431 kts 242°
2026-05-07 10:13 43.39476 -100.85316 34873 ft 431 kts 241°
2026-05-07 10:14 43.35872 -100.91910 34866 ft 432 kts 241°
2026-05-07 10:14 43.32263 -100.98498 34868 ft 432 kts 241°
2026-05-07 10:15 43.28650 -101.05077 34860 ft 431 kts 241°
2026-05-07 10:15 43.25032 -101.11652 34883 ft 431 kts 241°
2026-05-07 10:16 43.21420 -101.18203 34904 ft 430 kts 241°
2026-05-07 10:16 43.17807 -101.24740 34915 ft 430 kts 241°
2026-05-07 10:17 43.14193 -101.31265 34898 ft 429 kts 240°
2026-05-07 10:17 43.10607 -101.37726 34920 ft 429 kts 240°
2026-05-07 10:18 43.06993 -101.44222 34933 ft 429 kts 240°
2026-05-07 10:18 43.03377 -101.50709 34925 ft 429 kts 240°
2026-05-07 10:19 42.99756 -101.57190 34925 ft 429 kts 240°
2026-05-07 10:19 42.96130 -101.63665 34932 ft 429 kts 240°
2026-05-07 10:20 42.92496 -101.70140 34915 ft 429 kts 239°
2026-05-07 10:20 42.88860 -101.76605 34916 ft 430 kts 239°
2026-05-07 10:21 42.85219 -101.83064 34914 ft 430 kts 239°
2026-05-07 10:21 42.81565 -101.89534 34912 ft 430 kts 239°
2026-05-07 10:22 42.77935 -101.95946 34904 ft 430 kts 239°
2026-05-07 10:22 42.74275 -102.02396 34905 ft 430 kts 239°
2026-05-07 10:23 42.70617 -102.08830 34896 ft 429 kts 238°
2026-05-07 10:23 42.66960 -102.15247 34900 ft 429 kts 238°
2026-05-07 10:24 42.63304 -102.21651 34937 ft 429 kts 238°
2026-05-07 10:24 42.59645 -102.28045 34938 ft 429 kts 238°
2026-05-07 10:25 42.55983 -102.34431 34911 ft 428 kts 238°
2026-05-07 10:25 42.52327 -102.40791 34921 ft 427 kts 238°
2026-05-07 10:26 42.48677 -102.47128 34939 ft 426 kts 238°
2026-05-07 10:26 42.45054 -102.53404 34941 ft 425 kts 238°
2026-05-07 10:27 42.41415 -102.59697 34948 ft 424 kts 238°
2026-05-07 10:27 42.37777 -102.65975 34946 ft 424 kts 238°
2026-05-07 10:28 42.34131 -102.72253 34948 ft 424 kts 238°
2026-05-07 10:28 42.30479 -102.78529 34908 ft 424 kts 238°
2026-05-07 10:29 42.26824 -102.84795 34940 ft 424 kts 238°
2026-05-07 10:29 42.23164 -102.91058 34946 ft 426 kts 238°
2026-05-07 10:30 42.17640 -103.00486 34937 ft 428 kts 238°
2026-05-07 10:30 42.13941 -103.06783 34940 ft 429 kts 238°
2026-05-07 10:31 42.10225 -103.13094 34948 ft 430 kts 238°
2026-05-07 10:31 42.06495 -103.19415 34942 ft 431 kts 238°
2026-05-07 10:32 42.02784 -103.25693 34954 ft 432 kts 238°
2026-05-07 10:32 41.99040 -103.32014 34952 ft 433 kts 238°
2026-05-07 10:33 41.95285 -103.38338 34956 ft 433 kts 238°
2026-05-07 10:33 41.91527 -103.44658 34951 ft 433 kts 238°
2026-05-07 10:34 41.87854 -103.51036 34930 ft 430 kts 241°
2026-05-07 10:34 41.84449 -103.57598 34946 ft 428 kts 242°
2026-05-07 10:35 41.81084 -103.64167 34954 ft 427 kts 242°
2026-05-07 10:35 41.77698 -103.70712 34947 ft 427 kts 242°
2026-05-07 10:36 41.74321 -103.77185 34956 ft 426 kts 242°
2026-05-07 10:36 41.70895 -103.83728 34955 ft 426 kts 242°
2026-05-07 10:37 41.67512 -103.90173 34959 ft 426 kts 242°
2026-05-07 10:37 41.64103 -103.96655 34959 ft 426 kts 242°
2026-05-07 10:38 41.60690 -104.03132 34961 ft 426 kts 242°
2026-05-07 10:38 41.57266 -104.09617 34961 ft 427 kts 242°
2026-05-07 10:39 41.53832 -104.16105 34956 ft 428 kts 242°
2026-05-07 10:39 41.50393 -104.22590 34943 ft 428 kts 242°
2026-05-07 10:40 41.46946 -104.29075 34966 ft 428 kts 241°
2026-05-07 10:40 41.43496 -104.35553 34974 ft 429 kts 241°
2026-05-07 10:41 41.40622 -104.40939 34984 ft 429 kts 241°
2026-05-07 10:41 41.36599 -104.48463 34989 ft 429 kts 241°
2026-05-07 10:42 41.33138 -104.54921 35017 ft 429 kts 241°
2026-05-07 10:42 41.29674 -104.61370 35025 ft 428 kts 241°
2026-05-07 10:43 41.26208 -104.67814 35031 ft 428 kts 241°
2026-05-07 10:43 41.23303 -104.73203 35027 ft 428 kts 241°
2026-05-07 10:44 41.20145 -104.79759 35030 ft 418 kts 252°
2026-05-07 10:44 41.17756 -104.86780 35037 ft 417 kts 252°
2026-05-07 10:45 41.15377 -104.93813 35016 ft 417 kts 252°
2026-05-07 10:45 41.12976 -105.00821 35015 ft 417 kts 251°
2026-05-07 10:46 41.10561 -105.07808 35036 ft 417 kts 251°
2026-05-07 10:46 41.08136 -105.14787 35032 ft 416 kts 251°
2026-05-07 10:47 41.05709 -105.21757 35046 ft 415 kts 251°
2026-05-07 10:47 41.03286 -105.28696 35047 ft 415 kts 251°
2026-05-07 10:48 41.00864 -105.35619 35037 ft 414 kts 251°
2026-05-07 10:48 40.98436 -105.42542 35045 ft 415 kts 251°
2026-05-07 10:49 40.96015 -105.49431 35052 ft 416 kts 251°
2026-05-07 10:49 40.93567 -105.56378 35072 ft 417 kts 251°
2026-05-07 10:50 40.91104 -105.63348 35074 ft 418 kts 251°
2026-05-07 10:50 40.88635 -105.70319 35103 ft 419 kts 251°
2026-05-07 10:51 40.86152 -105.77313 35105 ft 421 kts 251°
2026-05-07 10:51 40.83653 -105.84336 35143 ft 424 kts 251°
2026-05-07 10:52 40.81133 -105.91399 35142 ft 426 kts 251°
2026-05-07 10:52 40.78599 -105.98482 35174 ft 427 kts 251°
2026-05-07 10:53 40.76055 -106.05573 35175 ft 427 kts 251°
2026-05-07 10:53 40.73512 -106.12646 35186 ft 426 kts 251°
2026-05-07 10:54 40.70973 -106.19689 35195 ft 424 kts 251°
2026-05-07 10:54 40.68441 -106.26697 35203 ft 423 kts 251°
2026-05-07 10:55 40.65930 -106.33631 35203 ft 421 kts 251°
2026-05-07 10:55 40.63409 -106.40576 35208 ft 419 kts 251°
2026-05-07 10:56 40.60890 -106.47503 35222 ft 419 kts 251°
2026-05-07 10:56 40.58358 -106.54446 35229 ft 421 kts 251°
2026-05-07 10:57 40.55821 -106.61389 35227 ft 422 kts 250°
2026-05-07 10:57 40.53269 -106.68353 35251 ft 423 kts 250°
2026-05-07 10:58 40.50705 -106.75333 35248 ft 424 kts 250°
2026-05-07 10:58 40.48125 -106.82340 35256 ft 427 kts 250°
2026-05-07 10:59 40.45527 -106.89380 35249 ft 430 kts 250°
2026-05-07 10:59 40.42907 -106.96460 35249 ft 432 kts 250°
2026-05-07 11:00 40.40276 -107.03552 35251 ft 432 kts 250°
2026-05-07 11:00 40.37641 -107.10633 35246 ft 431 kts 250°
2026-05-07 11:01 40.35016 -107.17675 35255 ft 429 kts 250°
2026-05-07 11:01 40.32412 -107.24642 35254 ft 427 kts 250°
2026-05-07 11:02 40.29798 -107.31624 35246 ft 426 kts 250°
2026-05-07 11:02 40.27186 -107.38584 35245 ft 426 kts 250°
2026-05-07 11:03 40.24571 -107.45534 35232 ft 425 kts 250°
2026-05-07 11:03 40.21953 -107.52477 35226 ft 426 kts 250°
2026-05-07 11:04 40.19328 -107.59422 35215 ft 426 kts 250°
2026-05-07 11:04 40.16691 -107.66381 35228 ft 427 kts 250°
2026-05-07 11:05 40.14043 -107.73355 35225 ft 429 kts 250°
2026-05-07 11:05 40.11380 -107.80351 35218 ft 430 kts 250°
2026-05-07 11:06 40.08706 -107.87364 35215 ft 432 kts 250°
2026-05-07 11:06 40.05850 -107.94298 35263 ft 439 kts 241°
2026-05-07 11:07 40.02218 -108.00691 35264 ft 443 kts 239°
2026-05-07 11:07 39.98473 -108.07080 35259 ft 443 kts 239°
2026-05-07 11:08 39.94751 -108.13492 35237 ft 444 kts 239°
2026-05-07 11:08 39.91047 -108.19926 35221 ft 443 kts 239°
2026-05-07 11:09 39.87350 -108.26358 35191 ft 443 kts 239°
2026-05-07 11:09 39.83658 -108.32771 35196 ft 442 kts 239°
2026-05-07 11:10 39.79970 -108.39162 35197 ft 441 kts 239°
2026-05-07 11:10 39.76283 -108.45537 35172 ft 441 kts 239°
2026-05-07 11:11 39.72592 -108.51907 35179 ft 441 kts 239°
2026-05-07 11:11 39.68900 -108.58266 35184 ft 441 kts 239°
2026-05-07 11:12 39.65205 -108.64619 35181 ft 441 kts 239°
2026-05-07 11:12 39.61504 -108.70967 35181 ft 441 kts 239°
2026-05-07 11:13 39.57815 -108.77283 35157 ft 442 kts 238°
2026-05-07 11:13 39.54098 -108.83633 35161 ft 442 kts 238°
2026-05-07 11:14 39.50365 -108.89998 35170 ft 444 kts 238°
2026-05-07 11:14 39.46624 -108.96364 35175 ft 445 kts 238°
2026-05-07 11:15 39.42865 -109.02747 35165 ft 446 kts 238°
2026-05-07 11:15 39.39094 -109.09140 35171 ft 447 kts 238°
2026-05-07 11:16 39.35338 -109.15492 35157 ft 447 kts 238°
2026-05-07 11:16 39.31531 -109.21917 35170 ft 448 kts 238°
2026-05-07 11:17 39.27741 -109.28303 35162 ft 448 kts 237°
2026-05-07 11:17 39.23968 -109.34646 35169 ft 448 kts 237°
2026-05-07 11:18 39.20165 -109.41027 35165 ft 449 kts 237°
2026-05-07 11:18 39.16352 -109.47411 35152 ft 449 kts 237°
2026-05-07 11:19 39.12534 -109.53794 35159 ft 450 kts 237°
2026-05-07 11:19 39.08707 -109.60176 35156 ft 450 kts 237°
2026-05-07 11:20 39.04877 -109.66552 35153 ft 450 kts 237°
2026-05-07 11:20 39.01042 -109.72923 35176 ft 451 kts 237°
2026-05-07 11:21 38.97222 -109.79256 35183 ft 451 kts 237°
2026-05-07 11:21 38.93376 -109.85619 35184 ft 450 kts 237°
2026-05-07 11:22 38.89533 -109.91966 35202 ft 452 kts 237°
2026-05-07 11:22 38.87604 -109.95148 35530 ft 448 kts 237°
2026-05-07 11:22 38.85706 -109.98268 36101 ft 439 kts 237°
2026-05-07 11:23 38.81999 -110.04355 36166 ft 426 kts 237°
2026-05-07 11:23 38.78374 -110.10311 36177 ft 422 kts 237°
2026-05-07 11:24 38.74770 -110.16225 36158 ft 420 kts 237°
2026-05-07 11:24 38.71178 -110.22104 36167 ft 419 kts 237°
2026-05-07 11:25 38.67586 -110.27972 36167 ft 419 kts 237°
2026-05-07 11:25 38.63984 -110.33847 36159 ft 420 kts 237°
2026-05-07 11:26 38.60360 -110.39743 36161 ft 423 kts 237°
2026-05-07 11:26 38.56712 -110.45669 36159 ft 425 kts 237°
2026-05-07 11:27 38.53041 -110.51620 36153 ft 427 kts 236°
2026-05-07 11:27 38.49973 -110.56587 36156 ft 429 kts 236°
2026-05-07 11:28 38.45637 -110.63594 36255 ft 431 kts 236°
2026-05-07 11:28 38.41933 -110.69562 36247 ft 432 kts 235°
2026-05-07 11:29 38.38530 -110.74332 36252 ft 435 kts 230°
2026-05-07 11:29 38.34245 -110.79795 36233 ft 435 kts 229°
2026-05-07 11:30 38.29965 -110.85238 36215 ft 434 kts 229°
2026-05-07 11:30 38.25723 -110.90695 36193 ft 433 kts 229°
2026-05-07 11:31 38.21503 -110.96151 36172 ft 432 kts 229°
2026-05-07 11:31 38.17310 -111.01569 36127 ft 432 kts 229°
2026-05-07 11:32 38.10989 -111.09719 36126 ft 431 kts 229°
2026-05-07 11:33 38.06783 -111.15129 36098 ft 430 kts 229°
2026-05-07 11:33 38.02578 -111.20526 36118 ft 430 kts 229°
2026-05-07 11:34 37.98375 -111.25913 36116 ft 430 kts 229°
2026-05-07 11:34 37.94167 -111.31297 36116 ft 430 kts 229°
2026-05-07 11:35 37.89951 -111.36682 36117 ft 431 kts 229°
2026-05-07 11:35 37.85750 -111.42039 36117 ft 432 kts 229°
2026-05-07 11:36 37.81510 -111.47435 36108 ft 433 kts 229°
2026-05-07 11:36 37.77261 -111.52834 36112 ft 433 kts 228°
2026-05-07 11:37 37.73000 -111.58239 36111 ft 434 kts 228°
2026-05-07 11:37 37.68735 -111.63639 36108 ft 434 kts 228°
2026-05-07 11:38 37.64466 -111.69036 36115 ft 434 kts 228°
2026-05-07 11:38 37.60193 -111.74429 36121 ft 434 kts 228°
2026-05-07 11:39 37.55927 -111.79805 36135 ft 434 kts 228°
2026-05-07 11:39 37.51658 -111.85174 36149 ft 433 kts 228°
2026-05-07 11:40 37.47794 -111.90853 36167 ft 427 kts 237°
2026-05-07 11:40 37.44343 -111.96943 36159 ft 427 kts 237°
2026-05-07 11:41 37.40855 -112.02982 36142 ft 427 kts 237°
2026-05-07 11:41 37.37324 -112.08992 36143 ft 426 kts 237°
2026-05-07 11:42 37.33808 -112.14984 36109 ft 426 kts 237°
2026-05-07 11:42 37.30294 -112.20973 36119 ft 426 kts 237°
2026-05-07 11:43 37.26773 -112.26965 36136 ft 427 kts 237°
2026-05-07 11:43 37.23243 -112.32961 36133 ft 427 kts 237°
2026-05-07 11:44 37.19700 -112.38967 36125 ft 428 kts 237°
2026-05-07 11:44 37.16151 -112.44974 36132 ft 429 kts 236°
2026-05-07 11:45 37.12589 -112.50991 36126 ft 430 kts 236°
2026-05-07 11:45 37.09047 -112.56965 36127 ft 430 kts 236°
2026-05-07 11:46 37.05471 -112.62986 36146 ft 431 kts 236°
2026-05-07 11:46 37.01884 -112.69013 36168 ft 432 kts 236°
2026-05-07 11:47 36.98291 -112.75044 36191 ft 432 kts 236°
2026-05-07 11:47 36.94695 -112.81071 36203 ft 432 kts 236°
2026-05-07 11:48 36.91093 -112.87097 36232 ft 432 kts 236°
2026-05-07 11:48 36.87496 -112.93105 36238 ft 432 kts 236°
2026-05-07 11:49 36.83896 -112.99107 36231 ft 431 kts 236°
2026-05-07 11:49 36.80301 -113.05091 36206 ft 431 kts 236°
2026-05-07 11:50 36.76709 -113.11059 36177 ft 430 kts 236°
2026-05-07 11:50 36.73114 -113.17022 36157 ft 430 kts 236°
2026-05-07 11:51 36.69521 -113.22971 36130 ft 430 kts 236°
2026-05-07 11:51 36.65941 -113.28890 36087 ft 430 kts 236°
2026-05-07 11:52 36.62334 -113.34846 36089 ft 430 kts 236°
2026-05-07 11:52 36.58847 -113.40901 36070 ft 430 kts 238°
2026-05-07 11:53 36.55417 -113.47006 36064 ft 431 kts 238°
2026-05-07 11:53 36.51976 -113.53099 36051 ft 431 kts 237°
2026-05-07 11:54 36.48515 -113.59188 36045 ft 432 kts 237°
2026-05-07 11:54 36.45042 -113.65274 36035 ft 432 kts 237°
2026-05-07 11:55 36.41558 -113.71366 36027 ft 432 kts 237°
2026-05-07 11:55 36.38098 -113.77407 36001 ft 432 kts 237°
2026-05-07 11:56 36.34593 -113.83516 35995 ft 431 kts 237°
2026-05-07 11:56 36.31137 -113.89531 35993 ft 431 kts 237°
2026-05-07 11:57 36.27661 -113.95568 35992 ft 430 kts 237°
2026-05-07 11:57 36.24190 -114.01586 35979 ft 429 kts 237°
2026-05-07 11:58 36.20722 -114.07590 35975 ft 428 kts 237°
2026-05-07 11:58 36.17258 -114.13575 35969 ft 427 kts 237°
2026-05-07 11:59 36.13799 -114.19544 35970 ft 427 kts 237°
2026-05-07 11:59 36.10339 -114.25505 35976 ft 426 kts 238°
2026-05-07 12:00 36.06727 -114.31341 35968 ft 428 kts 232°
2026-05-07 12:00 36.02737 -114.36819 35978 ft 429 kts 231°
2026-05-07 12:01 35.98704 -114.42275 35970 ft 430 kts 231°
2026-05-07 12:01 35.94717 -114.47740 35982 ft 431 kts 231°
2026-05-07 12:02 35.90688 -114.53297 35994 ft 432 kts 231°
2026-05-07 12:02 35.86705 -114.58790 36011 ft 433 kts 231°
2026-05-07 12:03 35.82688 -114.64320 36020 ft 433 kts 231°
2026-05-07 12:03 35.78661 -114.69852 36021 ft 434 kts 231°
2026-05-07 12:04 35.74649 -114.75355 36017 ft 434 kts 231°
2026-05-07 12:04 35.70573 -114.80941 36070 ft 443 kts 231°
2026-05-07 12:05 35.66407 -114.86636 36071 ft 453 kts 231°
2026-05-07 12:05 35.62159 -114.92446 36061 ft 459 kts 231°
2026-05-07 12:06 35.57888 -114.98286 36050 ft 460 kts 231°
2026-05-07 12:06 35.53599 -115.04117 36059 ft 461 kts 229°
2026-05-07 12:06 35.51182 -115.06717 36069 ft 464 kts 218°
2026-05-07 12:07 35.48438 -115.08818 36074 ft 466 kts 209°
2026-05-07 12:07 35.42356 -115.11659 36076 ft 469 kts 200°
2026-05-07 12:08 35.36152 -115.14133 36056 ft 469 kts 200°
2026-05-07 12:08 35.30012 -115.16650 36075 ft 469 kts 200°
2026-05-07 12:09 35.23834 -115.19229 36059 ft 469 kts 200°
2026-05-07 12:09 35.17660 -115.21804 36053 ft 469 kts 200°
2026-05-07 12:10 35.11418 -115.24187 36049 ft 471 kts 195°
2026-05-07 12:10 35.05010 -115.25886 36040 ft 472 kts 193°
2026-05-07 12:11 34.98573 -115.27527 36050 ft 472 kts 193°
2026-05-07 12:11 34.92186 -115.29234 36025 ft 473 kts 194°
2026-05-07 12:12 34.85752 -115.30981 36020 ft 474 kts 194°
2026-05-07 12:12 34.79306 -115.32724 36017 ft 475 kts 194°
2026-05-07 12:13 34.72980 -115.34984 36002 ft 474 kts 201°
2026-05-07 12:13 34.66752 -115.37635 35994 ft 474 kts 201°
2026-05-07 12:14 34.60520 -115.40245 35984 ft 475 kts 200°
2026-05-07 12:14 34.54252 -115.42801 35974 ft 475 kts 200°
2026-05-07 12:15 34.47997 -115.45334 35972 ft 475 kts 200°
2026-05-07 12:15 34.41730 -115.47873 35976 ft 475 kts 200°
2026-05-07 12:16 34.35588 -115.50626 35965 ft 472 kts 210°
2026-05-07 12:16 34.30009 -115.54761 35981 ft 470 kts 215°
2026-05-07 12:17 34.24481 -115.58953 35696 ft 468 kts 214°
2026-05-07 12:17 34.21705 -115.60986 35277 ft 465 kts 212°
2026-05-07 12:17 34.18817 -115.62712 34815 ft 463 kts 204°
2026-05-07 12:17 34.15824 -115.64121 34375 ft 460 kts 202°
2026-05-07 12:18 34.12836 -115.65466 33919 ft 457 kts 201°
2026-05-07 12:18 34.10864 -115.66353 33561 ft 455 kts 201°
2026-05-07 12:18 34.07912 -115.67699 33065 ft 452 kts 202°
2026-05-07 12:18 34.04986 -115.69057 32585 ft 449 kts 202°
2026-05-07 12:19 34.02085 -115.70420 32131 ft 446 kts 202°
2026-05-07 12:19 33.99209 -115.71778 31681 ft 442 kts 202°
2026-05-07 12:19 33.96352 -115.73126 31238 ft 439 kts 202°
2026-05-07 12:19 33.93508 -115.74465 30801 ft 436 kts 201°
2026-05-07 12:20 33.90695 -115.75798 30372 ft 434 kts 202°
2026-05-07 12:20 33.87905 -115.77161 29917 ft 432 kts 202°
2026-05-07 12:20 33.85138 -115.78530 29417 ft 429 kts 202°
2026-05-07 12:20 33.82381 -115.79893 28942 ft 426 kts 202°
2026-05-07 12:21 33.79645 -115.81237 28490 ft 423 kts 202°
2026-05-07 12:21 33.76930 -115.82566 28033 ft 420 kts 201°
2026-05-07 12:21 33.74226 -115.83856 27592 ft 417 kts 201°
2026-05-07 12:21 33.71533 -115.85113 27157 ft 414 kts 200°
2026-05-07 12:22 33.68858 -115.86357 26726 ft 411 kts 200°
2026-05-07 12:22 33.66203 -115.87593 26302 ft 408 kts 200°
2026-05-07 12:22 33.63560 -115.88822 25882 ft 406 kts 200°
2026-05-07 12:22 33.60969 -115.90030 25472 ft 404 kts 200°
2026-05-07 12:23 33.58352 -115.91252 25060 ft 402 kts 200°
2026-05-07 12:23 33.55754 -115.92464 24642 ft 400 kts 200°
2026-05-07 12:23 33.53227 -115.93850 24207 ft 399 kts 211°
2026-05-07 12:23 33.51009 -115.95831 23799 ft 397 kts 224°
2026-05-07 12:24 33.49167 -115.98275 23322 ft 394 kts 236°
2026-05-07 12:24 33.47609 -116.00962 22847 ft 392 kts 237°
2026-05-07 12:24 33.46084 -116.03659 22402 ft 390 kts 238°
2026-05-07 12:24 33.44568 -116.06336 21963 ft 388 kts 237°
2026-05-07 12:25 33.43046 -116.08999 21535 ft 386 kts 237°
2026-05-07 12:25 33.41526 -116.11636 21109 ft 384 kts 237°
2026-05-07 12:25 33.40006 -116.14256 20694 ft 383 kts 237°
2026-05-07 12:25 33.38488 -116.16868 20280 ft 381 kts 237°
2026-05-07 12:26 33.36978 -116.19460 19868 ft 380 kts 237°
2026-05-07 12:26 33.35471 -116.22047 19453 ft 378 kts 237°
2026-05-07 12:26 33.33879 -116.24539 19018 ft 377 kts 224°
2026-05-07 12:26 33.31987 -116.26156 18702 ft 375 kts 207°
2026-05-07 12:27 33.29657 -116.27543 18282 ft 374 kts 205°
2026-05-07 12:27 33.27317 -116.28876 17826 ft 372 kts 204°
2026-05-07 12:27 33.24984 -116.30200 17394 ft 370 kts 204°
2026-05-07 12:27 33.22668 -116.31526 16943 ft 369 kts 204°
2026-05-07 12:28 33.20371 -116.32853 16590 ft 364 kts 205°
2026-05-07 12:28 33.18135 -116.34155 16542 ft 351 kts 205°
2026-05-07 12:28 33.15975 -116.35416 16458 ft 340 kts 205°
2026-05-07 12:28 33.13876 -116.36643 16250 ft 333 kts 205°
2026-05-07 12:29 33.11805 -116.37853 15938 ft 330 kts 204°
2026-05-07 12:29 33.09746 -116.39057 15634 ft 329 kts 204°
2026-05-07 12:29 33.07699 -116.40250 15307 ft 327 kts 204°
2026-05-07 12:29 33.05663 -116.41438 15000 ft 324 kts 204°
2026-05-07 12:30 33.03648 -116.42613 14718 ft 321 kts 204°
2026-05-07 12:30 33.01651 -116.43776 14415 ft 319 kts 204°
2026-05-07 12:30 32.99724 -116.45076 14117 ft 317 kts 215°
2026-05-07 12:30 32.98014 -116.46725 13834 ft 316 kts 220°
2026-05-07 12:31 32.96371 -116.48454 13502 ft 314 kts 220°
2026-05-07 12:31 32.94740 -116.50180 13150 ft 313 kts 220°
2026-05-07 12:31 32.93105 -116.51887 12809 ft 312 kts 219°
2026-05-07 12:31 32.91464 -116.53574 12446 ft 311 kts 219°
2026-05-07 12:32 32.89823 -116.55243 12095 ft 310 kts 219°
2026-05-07 12:32 32.88182 -116.56902 11747 ft 309 kts 219°
2026-05-07 12:32 32.86566 -116.58529 11424 ft 307 kts 218°
2026-05-07 12:32 32.84938 -116.60168 11114 ft 306 kts 218°
2026-05-07 12:33 32.81725 -116.63404 10598 ft 299 kts 218°
2026-05-07 12:33 32.80143 -116.64994 10315 ft 297 kts 218°
2026-05-07 12:33 32.78569 -116.66578 10005 ft 296 kts 218°
2026-05-07 12:34 32.77095 -116.68276 9655 ft 297 kts 234°
2026-05-07 12:34 32.76079 -116.70397 9366 ft 295 kts 241°
2026-05-07 12:34 32.75116 -116.72522 9007 ft 290 kts 240°
2026-05-07 12:34 32.74143 -116.74616 8505 ft 289 kts 240°
2026-05-07 12:35 32.73170 -116.76692 8054 ft 287 kts 240°
2026-05-07 12:35 32.72195 -116.78754 7619 ft 284 kts 240°
2026-05-07 12:35 32.71226 -116.80798 7058 ft 287 kts 240°
2026-05-07 12:35 32.70318 -116.82894 6647 ft 283 kts 248°
2026-05-07 12:36 32.69638 -116.85069 6241 ft 279 kts 251°
2026-05-07 12:36 32.69000 -116.87220 5856 ft 274 kts 251°
2026-05-07 12:36 32.68393 -116.89311 5495 ft 269 kts 252°
2026-05-07 12:36 32.67791 -116.91395 5144 ft 264 kts 252°
2026-05-07 12:37 32.67327 -116.93459 4786 ft 257 kts 270°
2026-05-07 12:37 32.67604 -116.95504 4465 ft 248 kts 288°
2026-05-07 12:37 32.68081 -116.97445 4082 ft 245 kts 289°
2026-05-07 12:37 32.68564 -116.99360 3696 ft 242 kts 289°
2026-05-07 12:38 32.69029 -117.01226 3338 ft 232 kts 289°
2026-05-07 12:38 32.69480 -117.03053 2969 ft 226 kts 288°
2026-05-07 12:38 32.69897 -117.04750 2670 ft 218 kts 288°
2026-05-07 12:38 32.70314 -117.06452 2310 ft 209 kts 287°
2026-05-07 12:39 32.70695 -117.08014 2013 ft 199 kts 287°
2026-05-07 12:39 32.71076 -117.09573 1703 ft 189 kts 287°
2026-05-07 12:39 32.71424 -117.11004 1424 ft 177 kts 287°
2026-05-07 12:39 32.71748 -117.12337 1151 ft 161 kts 286°
2026-05-07 12:40 32.72046 -117.13561 890 ft 152 kts 286°
2026-05-07 12:40 32.72330 -117.14737 615 ft 146 kts 285°
2026-05-07 12:40 32.72602 -117.15872 393 ft 140 kts 286°
2026-05-07 12:40 32.72885 -117.17014 206 ft 145 kts 285°
2026-05-07 12:41 32.73160 -117.18158 34 ft 141 kts 287°
2026-05-07 12:41 32.73374 -117.19032 22 ft 58 kts 285°
2026-05-07 12:41 32.73447 -117.19337 22 ft 34 kts 287°
2026-05-07 12:41 32.73506 -117.19598 25 ft 31 kts 287°
2026-05-07 12:42 32.73536 -117.19728 27 ft 11 kts 275°
2026-05-07 12:42 32.73526 -117.19790 25 ft 7 kts 250°
2026-05-07 12:42 32.73508 -117.19845 23 ft 8 kts 249°
2026-05-07 12:42 32.73490 -117.19907 22 ft 8 kts 259°
2026-05-07 12:43 32.73494 -117.19973 23 ft 8 kts 286°
2026-05-07 12:43 32.73510 -117.20032 23 ft 8 kts 289°
2026-05-07 12:43 32.73525 -117.20092 24 ft 7 kts 286°
2026-05-07 12:43 32.73539 -117.20147 24 ft 7 kts 286°
2026-05-07 12:44 32.73547 -117.20203 22 ft 7 kts 261°
2026-05-07 12:44 32.73513 -117.20238 22 ft 7 kts 199°
2026-05-07 12:44 32.73468 -117.20254 23 ft 7 kts 195°
2026-05-07 12:44 32.73448 -117.20260 22 ft 2 kts 195°
2026-05-07 12:45 32.73438 -117.20264 22 ft 2 kts 195°
2026-05-07 12:45 32.73430 -117.20273 22 ft 2 kts 235°
2026-05-07 12:45 32.73425 -117.20291 22 ft 3 kts 255°
2026-05-07 12:45 32.73421 -117.20313 22 ft 3 kts 260°
2026-05-07 12:46 32.73419 -117.20330 22 ft 1 kts 261°
2026-05-07 12:46 32.73419 -117.20334 22 ft 0 kts 261°
2026-05-07 12:46 32.73418 -117.20335 22 ft 0 kts 261°